Location: Shepherdstown, WV
(39.4326°N, 77.8042°W)
Time: 05:53:40
(UTC-04:00)

Vanguard 3 - Pass Details

Date: 08 August 2021
Orbit: 510 x 3260 km, 33.3° (Epoch: 21 September)

Event Time Altitude Azimuth Distance (km) Brightness Sun altitude
Rises 13:54:30 0° 177° (S) 3,666 10.8 65.1°
Reaches altitude 10° 13:59:29 10° 143° (SE) 3,302 10.6 64.7°
Maximum altitude 14:01:43 11° 127° (SE) 3,471 10.6 64.5°
Drops below altitude 10° 14:04:15 10° 112° (ESE) 3,858 10.7 64.3°
Sets 14:12:04 0° 84° (E) 5,695 11.3 63.6°
